Погода в Цзыбо

Китай     36°47′43″N   118°03′37″E
темп.,
°C
ветер,
м/с
пор.,
м/с
влажн.,
%
обл.,
%
осадки,
мм/ч
давл.,
гПа
погр.,
м
11 мая, вт
вт1123:00+14в3872100 0.0 1012406
02:00+14в3966100 0.0 1012429
05:00+13в3872100 0.0 1012370
08:00+15в4759100 0.0 1013588
11:00+21всв344599 0.0 1011956
14:00+24всв333813 0.0 10091298
17:00+24в4341100 0.0 10081250
20:00+20в366247 0.0 1008387
12 мая, ср
ср1223:00+19вюв2371100 0.0 1009133
02:00+18ююв117391 0.0 100813
05:00+17юз11732 0.0 100914
08:00+21с115733 0.0 1010365
11:00+26с22350 0.0 10101254
14:00+30всв22250 0.0 10071844
17:00+30всв332642 0.0 10061749
20:00+24в495287 0.0 1007392
13 мая, чт
чт1323:00+23ю39598 0.0 1008388
02:00+21ююв3867100 0.0 1008314
05:00+20ю2675100 0.0 1008242
08:00+23ю356388 0.0 1009513
11:00+29ююз44385 0.0 10081792
14:00+32ю33295 0.0 10062563
17:00+31ююв543139 0.0 10052280
20:00+26ююв510450 0.0 1006518
14 мая, пт
пт1423:00+23ю410520 0.0 1008465
02:00+21ююв255946 0.0 1008316
05:00+20юв136543 0.0 1007175
08:00+24ююв254987 0.0 1008605
11:00+29ююв4532100 0.0 10061496
14:00+30ююв5638100 0.0 10041764
17:00+27ююв4647100 0.0 10031190
20:00+22ююв2580100 2.1 1004405
15 мая, сб
сб1523:00+21в1191100 11.5 1004245
02:00+21в1287100 16.3 1003262
05:00+21св1189100 1.5 1003196
08:00+21св2288100 1.7 1003272
11:00+21ссв3388100 0.0 1003415
14:00+19ссв5793100 0.2 1003519
17:00+14св61091100 0.8 1006648
20:00+13св51088100 1.3 1009755